STARLINK-1875

decayed
NORAD ID: 47160 Int'l Des: 2020-088 Owner: SPXS Country: US Constellation: starlink
LEOCIRCULAR

关于 STARLINK-1875

正在加载描述...

高度历史

Altitude vs Time

uPlot chart will show altitude changes over time

两行轨道根数

1 47160U 20088AQ 21333.21134786 .22911489 12423-4 19945-2 0 9992
2 47160 53.0303 56.0979 0006475 19.6263 341.2105 16.38456062 57514
Epoch: Nov 29, 2021 • Age: 33295 hours

当前状态

Position data unavailable
发射日期 Nov 25, 2020
运行时间 4.8 years
衰减日期 Nov 29, 2021
类型 internet

技术详情

分类 Payload
质量 260.00 kg
干质量 248.00 kg
总质量 260.00 kg
长度 0.20 m
直径 2.80 m
跨度 9.00 m
形状 Box + pan
制造商 SPXS
平台类型 Starlink
阶段状态 Reentered
所有者/国家 SPXS/US

大型星座

Loading constellations...